| time (UTC) | temp C | wind direction | speed KPH | gust KPH | rain 1hr cm | rain 24hr cm | rain mn cm | humidity % | barometer mb |
| 20260509085952 | 10 | 46 | 0.0 | 0.0 | 0.00 | 0.00 | 0.00 | 85 | 1009.9 |
| 20260509084945 | 10 | 47 | 0.0 | 3.2 | 0.00 | 0.00 | 0.00 | 85 | 1009.9 |
| 20260509083922 | 10 | 42 | 0.0 | 0.0 | 0.00 | 0.00 | 0.00 | 84 | 1009.7 |
| 20260509082912 | 10 | 42 | 0.0 | 3.2 | 0.00 | 0.00 | 0.00 | 84 | 1009.8 |
| 20260509081838 | 10 | 24 | 0.0 | 1.6 | 0.00 | 0.00 | 0.00 | 83 | 1009.8 |
| 20260509080827 | 10 | 292 | 0.0 | 0.0 | 0.00 | 0.00 | 0.00 | 83 | 1009.9 |
| 20260509075830 | 10 | 123 | 0.0 | 0.0 | 0.00 | 0.00 | 0.00 | 82 | 1010.1 |
| 20260509074834 | 10 | 123 | 0.0 | 0.0 | 0.00 | 0.00 | 0.00 | 82 | 1010.0 |
| 20260509073842 | 10 | 123 | 0.0 | 0.0 | 0.00 | 0.00 | 0.00 | 82 | 1010.0 |
| 20260509072817 | 10 | 123 | 0.0 | 0.0 | 0.00 | 0.00 | 0.00 | 81 | 1009.9 |
| 20260509071800 | 10 | 173 | 0.0 | 0.0 | 0.00 | 0.00 | 0.00 | 81 | 1010.3 |
| 20260509070813 | 10 | 54 | 0.0 | 0.0 | 0.00 | 0.00 | 0.00 | 81 | 1010.3 |
| 20260509065834 | 10 | 61 | 1.6 | 6.4 | 0.00 | 0.00 | 0.00 | 81 | 1010.3 |
| 20260509064803 | 10 | 281 | 0.0 | 3.2 | 0.00 | 0.00 | 0.00 | 81 | 1010.4 |
| 20260509060407 | 11 | 119 | 0.0 | 0.0 | 0.00 | 0.00 | 0.00 | 78 | 1011.2 |
| 20260509055354 | 11 | 138 | 0.0 | 1.6 | 0.00 | 0.00 | 0.00 | 78 | 1011.3 |
| 20260509054320 | 11 | 92 | 0.0 | 0.0 | 0.00 | 0.00 | 0.00 | 77 | 1011.4 |
| 20260509053318 | 11 | 92 | 0.0 | 0.0 | 0.00 | 0.00 | 0.00 | 76 | 1011.4 |
| 20260509052337 | 11 | 97 | 0.0 | 0.0 | 0.00 | 0.00 | 0.00 | 75 | 1011.5 |
| 20260509051320 | 11 | 74 | 0.0 | 0.0 | 0.00 | 0.00 | 0.00 | 75 | 1011.7 |
| 20260509050253 | 11 | 333 | 0.0 | 0.0 | 0.00 | 0.00 | 0.00 | 74 | 1011.9 |
| 20260509045241 | 11 | 333 | 0.0 | 0.0 | 0.00 | 0.00 | 0.00 | 73 | 1012.0 |
| 20260509043052 | 11 | 333 | 0.0 | 0.0 | 0.00 | 0.00 | 0.00 | 72 | 1012.1 |
| 20260509042038 | 12 | 333 | 0.0 | 0.0 | 0.00 | 0.00 | 0.00 | 72 | 1012.0 |
| 20260509041036 | 12 | 333 | 0.0 | 0.0 | 0.00 | 0.00 | 0.00 | 71 | 1012.0 |
| 20260509040006 | 12 | 0 | 0.0 | 0.0 | 0.00 | 0.00 | 0.00 | 71 | 1012.0 |
| 20260509034941 | 12 | 0 | 0.0 | 0.0 | 0.00 | 0.00 | 0.00 | 70 | 1012.1 |
| 20260509033942 | 12 | 0 | 0.0 | 0.0 | 0.00 | 0.00 | 0.00 | 70 | 1011.8 |
| 20260509032959 | 12 | 0 | 0.0 | 0.0 | 0.00 | 0.00 | 0.00 | 69 | 1011.8 |
| 20260509031934 | 12 | 0 | 0.0 | 0.0 | 0.00 | 0.00 | 0.00 | 68 | 1011.6 |
| 20260509030946 | 12 | 0 | 0.0 | 0.0 | 0.00 | 0.00 | 0.00 | 68 | 1011.7 |
| 20260509025949 | 12 | 0 | 0.0 | 0.0 | 0.00 | 0.00 | 0.00 | 67 | 1011.6 |
| 20260509024932 | 12 | 288 | 0.0 | 3.2 | 0.00 | 0.00 | 0.00 | 67 | 1011.7 |
| 20260509023904 | 12 | 42 | 0.0 | 1.6 | 0.00 | 0.00 | 0.00 | 66 | 1011.5 |
| 20260509021804 | 13 | 95 | 0.0 | 0.0 | 0.00 | 0.00 | 0.00 | 65 | 1012.0 |
| 20260509012322 | 13 | 328 | 0.0 | 0.0 | 0.00 | 0.00 | 0.00 | 63 | 1011.7 |
| 20260509011340 | 13 | 338 | 0.0 | 0.0 | 0.00 | 0.00 | 0.00 | 63 | 1011.5 |
| 20260509010338 | 13 | 342 | 0.0 | 0.0 | 0.00 | 0.00 | 0.00 | 62 | 1011.4 |
| 20260509005340 | 13 | 40 | 0.0 | 1.6 | 0.00 | 0.00 | 0.00 | 61 | 1011.3 |
| 20260509004347 | 14 | 40 | 0.0 | 1.6 | 0.00 | 0.00 | 0.00 | 61 | 1011.2 |
| 20260509003323 | 14 | 40 | 0.0 | 3.2 | 0.00 | 0.00 | 0.00 | 60 | 1011.1 |
| 20260509002317 | 15 | 275 | 0.0 | 0.0 | 0.00 | 0.00 | 0.00 | 59 | 1011.1 |
| 20260509001342 | 15 | 275 | 0.0 | 0.0 | 0.00 | 0.00 | 0.00 | 57 | 1011.2 |
| 20260509000400 | 15 | 275 | 0.0 | 6.4 | 0.00 | 0.00 | 0.00 | 56 | 1011.2 |
| 20260508235422 | 15 | 284 | 1.6 | 1.6 | 0.00 | 0.00 | 0.00 | 55 | 1011.2 |
| 20260508234418 | 15 | 253 | 1.6 | 9.7 | 0.00 | 0.00 | 0.00 | 53 | 1011.2 |
| 20260508233401 | 16 | 22 | 3.2 | 17.7 | 0.00 | 0.00 | 0.00 | 54 | 1011.1 |
| 20260508231250 | 16 | 248 | 3.2 | 14.5 | 0.00 | 0.00 | 0.00 | 53 | 1011.0 |
| 20260508230229 | 16 | 194 | 4.8 | 19.3 | 0.00 | 0.00 | 0.00 | 52 | 1010.9 |
| 20260508225227 | 16 | 281 | 6.4 | 19.3 | 0.00 | 0.00 | 0.00 | 51 | 1010.8 |
| 20260508223050 | 17 | 319 | 6.4 | 19.3 | 0.00 | 0.00 | 0.00 | 51 | 1010.9 |
| 20260508222055 | 16 | 197 | 6.4 | 19.3 | 0.00 | 0.00 | 0.00 | 52 | 1010.9 |
| 20260508221114 | 16 | 248 | 4.8 | 16.1 | 0.00 | 0.00 | 0.00 | 52 | 1011.0 |
| 20260508220117 | 16 | 195 | 8.0 | 24.1 | 0.00 | 0.00 | 0.00 | 52 | 1011.1 |
| 20260508213912 | 16 | 259 | 6.4 | 17.7 | 0.00 | 0.00 | 0.00 | 53 | 1010.8 |
| 20260508212935 | 16 | 211 | 1.6 | 12.9 | 0.00 | 0.00 | 0.00 | 54 | 1010.6 |
| 20260508211918 | 16 | 347 | 3.2 | 12.9 | 0.00 | 0.00 | 0.00 | 55 | 1010.7 |
| 20260508210918 | 16 | 242 | 3.2 | 20.9 | 0.00 | 0.00 | 0.00 | 53 | 1010.7 |
| 20260508205917 | 16 | 207 | 6.4 | 20.9 | 0.00 | 0.00 | 0.00 | 52 | 1010.7 |
| 20260508204930 | 16 | 234 | 9.7 | 20.9 | 0.00 | 0.00 | 0.00 | 52 | 1010.9 |
| 20260508203913 | 16 | 265 | 9.7 | 29.0 | 0.00 | 0.00 | 0.00 | 55 | 1011.0 |
| 20260508202850 | 15 | 227 | 12.9 | 29.0 | 0.00 | 0.00 | 0.00 | 55 | 1011.1 |
| 20260508201844 | 15 | 260 | 8.0 | 46.7 | 0.00 | 0.00 | 0.00 | 58 | 1011.1 |
| 20260508200848 | 15 | 202 | 16.1 | 46.7 | 0.00 | 0.00 | 0.00 | 57 | 1011.0 |
| 20260508195843 | 17 | 246 | 11.3 | 30.6 | 0.00 | 0.00 | 0.00 | 45 | 1010.7 |
| 20260508194903 | 17 | 178 | 9.7 | 22.5 | 0.00 | 0.00 | 0.00 | 44 | 1010.6 |
| 20260508193832 | 17 | 172 | 6.4 | 20.9 | 0.00 | 0.00 | 0.00 | 44 | 1010.9 |
| 20260508192852 | 17 | 265 | 11.3 | 24.1 | 0.00 | 0.00 | 0.00 | 43 | 1010.9 |
| 20260508191828 | 17 | 244 | 9.7 | 24.1 | 0.00 | 0.00 | 0.00 | 42 | 1011.0 |
| 20260508190820 | 17 | 254 | 6.4 | 20.9 | 0.00 | 0.00 | 0.00 | 41 | 1011.0 |
| 20260508185833 | 17 | 182 | 12.9 | 20.9 | 0.00 | 0.00 | 0.00 | 39 | 1010.9 |
| 20260508184858 | 17 | 273 | 9.7 | 19.3 | 0.00 | 0.00 | 0.00 | 38 | 1010.9 |
| 20260508182639 | 18 | 265 | 11.3 | 22.5 | 0.00 | 0.00 | 0.00 | 37 | 1010.5 |
| 20260508181639 | 19 | 309 | 8.0 | 17.7 | 0.00 | 0.00 | 0.00 | 38 | 1010.9 |
| 20260508175534 | 18 | 307 | 9.7 | 24.1 | 0.00 | 0.00 | 0.00 | 40 | 1011.2 |
| 20260508174501 | 17 | 164 | 8.0 | 24.1 | 0.00 | 0.00 | 0.00 | 41 | 1011.6 |
| 20260508173520 | 17 | 211 | 6.4 | 20.9 | 0.00 | 0.00 | 0.00 | 42 | 1011.7 |
| 20260508172446 | 17 | 256 | 12.9 | 24.1 | 0.00 | 0.00 | 0.00 | 40 | 1011.7 |
| 20260508171450 | 18 | 254 | 12.9 | 37.0 | 0.00 | 0.00 | 0.00 | 39 | 1011.5 |
| 20260508170446 | 17 | 217 | 14.5 | 37.0 | 0.00 | 0.00 | 0.00 | 39 | 1011.7 |
| 20260508165501 | 17 | 265 | 9.7 | 27.4 | 0.00 | 0.00 | 0.00 | 41 | 1011.8 |
| 20260508164426 | 17 | 221 | 9.7 | 27.4 | 0.00 | 0.00 | 0.00 | 43 | 1012.0 |
| 20260508162220 | 17 | 254 | 11.3 | 24.1 | 0.00 | 0.00 | 0.00 | 42 | 1012.4 |
| 20260508160135 | 16 | 212 | 12.9 | 27.4 | 0.00 | 0.00 | 0.00 | 43 | 1012.5 |
| 20260508155153 | 16 | 189 | 12.9 | 27.4 | 0.00 | 0.00 | 0.00 | 43 | 1012.5 |
| 20260508154208 | 16 | 187 | 11.3 | 24.1 | 0.00 | 0.00 | 0.00 | 45 | 1012.7 |
| 20260508153139 | 16 | 215 | 12.9 | 30.6 | 0.00 | 0.00 | 0.00 | 44 | 1012.7 |
| 20260508152203 | 16 | 210 | 12.9 | 30.6 | 0.00 | 0.00 | 0.00 | 46 | 1012.7 |
| 20260508150100 | 15 | 250 | 11.3 | 25.7 | 0.00 | 0.00 | 0.00 | 46 | 1012.5 |
| 20260508145118 | 15 | 262 | 9.7 | 22.5 | 0.00 | 0.00 | 0.00 | 48 | 1012.6 |
| 20260508142930 | 15 | 196 | 9.7 | 22.5 | 0.00 | 0.00 | 0.00 | 49 | 1012.8 |
| 20260508141938 | 15 | 254 | 6.4 | 20.9 | 0.00 | 0.00 | 0.00 | 49 | 1012.8 |
| 20260508135812 | 13 | 237 | 6.4 | 17.7 | 0.00 | 0.00 | 0.00 | 51 | 1012.8 |
| 20260508133627 | 12 | 161 | 1.6 | 11.3 | 0.00 | 0.00 | 0.00 | 55 | 1013.1 |
| 20260508131507 | 10 | 215 | 0.0 | 0.0 | 0.00 | 0.00 | 0.00 | 68 | 1013.4 |
| 20260508130522 | 8 | 293 | 0.0 | 3.2 | 0.00 | 0.00 | 0.00 | 70 | 1013.4 |
| 20260508125504 | 7 | 211 | 0.0 | 1.6 | 0.00 | 0.00 | 0.00 | 73 | 1013.4 |
| 20260508124436 | 6 | 120 | 0.0 | 0.0 | 0.00 | 0.00 | 0.00 | 77 | 1013.8 |
| 20260508123417 | 5 | 120 | 0.0 | 0.0 | 0.00 | 0.00 | 0.00 | 79 | 1013.8 |
| 20260508122348 | 5 | 120 | 0.0 | 0.0 | 0.00 | 0.00 | 0.00 | 79 | 1013.9 |
| 20260508121327 | 5 | 120 | 0.0 | 0.0 | 0.00 | 0.00 | 0.00 | 81 | 1014.0 |
| 20260508120337 | 4 | 120 | 0.0 | 0.0 | 0.00 | 0.00 | 0.00 | 81 | 1014.0 |
| 20260508115321 | 4 | 120 | 0.0 | 0.0 | 0.00 | 0.00 | 0.00 | 82 | 1013.9 |
| 20260508114249 | 4 | 120 | 0.0 | 0.0 | 0.00 | 0.00 | 0.00 | 83 | 1013.9 |
| 20260508113310 | 3 | 120 | 0.0 | 0.0 | 0.00 | 0.00 | 0.00 | 83 | 1013.8 |
| 20260508112313 | 3 | 120 | 0.0 | 3.2 | 0.00 | 0.00 | 0.00 | 84 | 1013.8 |
| 20260508111329 | 3 | 123 | 0.0 | 0.0 | 0.00 | 0.00 | 0.00 | 85 | 1013.7 |
| 20260508110307 | 3 | 123 | 0.0 | 0.0 | 0.00 | 0.00 | 0.00 | 85 | 1013.8 |
| 20260508105328 | 3 | 123 | 0.0 | 0.0 | 0.00 | 0.00 | 0.00 | 85 | 1013.6 |
| 20260508103209 | 2 | 123 | 0.0 | 0.0 | 0.00 | 0.00 | 0.00 | 84 | 1013.5 |
| 20260508102158 | 2 | 123 | 0.0 | 0.0 | 0.00 | 0.00 | 0.00 | 84 | 1013.3 |
| 20260508094856 | 2 | 123 | 0.0 | 0.0 | 0.00 | 0.00 | 0.00 | 83 | 1013.1 |
| 20260508092730 | 3 | 123 | 0.0 | 0.0 | 0.00 | 0.00 | 0.00 | 82 | 1013.2 |
| 20260508091725 | 3 | 123 | 0.0 | 0.0 | 0.00 | 0.00 | 0.00 | 82 | 1013.2 |
| 20260508090730 | 3 | 123 | 0.0 | 0.0 | 0.00 | 0.00 | 0.00 | 81 | 1013.1 |